VORF Weather Reports


time (UTC)temp
C
wind
direction
speed
KPH
gust
KPH
rain 1hr
cm
rain 24hr
cm
rain mn
cm
humidity
%
barometer
mb
20260509233043 22 333 4.8 20.9 0.00 0.00 0.00 33 1004.9
20260509231545 22 309 4.8 17.7 0.00 0.00 0.00 33 1004.6
20260509230049 22 298 9.7 25.7 0.00 0.00 0.00 32 1004.4
20260509224544 22 273 4.8 19.3 0.00 0.00 0.00 33 1004.2
20260509223049 23 300 8.0 22.5 0.00 0.00 0.00 32 1004.0
20260509221541 23 257 8.0 25.7 0.00 0.00 0.00 30 1003.9
20260509220043 23 337 8.0 24.1 0.00 0.00 0.00 30 1003.5
20260509214545 23 309 8.0 25.7 0.00 0.00 0.00 30 1003.3
20260509213057 24 288 8.0 24.1 0.00 0.00 0.00 29 1003.0
20260509211542 24 317 6.4 25.7 0.00 0.00 0.00 30 1003.0
20260509210100 24 160 11.3 30.6 0.00 0.00 0.00 30 1002.8
20260509204545 23 277 8.0 32.2 0.00 0.00 0.00 30 1002.8
20260509203043 23 204 8.0 20.9 0.00 0.00 0.00 30 1002.9
20260509201543 24 297 9.7 27.4 0.00 0.00 0.00 30 1002.9
20260509200043 23 298 8.0 24.1 0.00 0.00 0.00 30 1003.0
20260509194545 23 194 8.0 24.1 0.00 0.00 0.00 30 1003.1
20260509193044 23 276 12.9 35.4 0.00 0.00 0.00 31 1003.1
20260509191546 23 264 9.7 24.1 0.00 0.00 0.00 29 1003.1
20260509190048 23 230 9.7 22.5 0.00 0.00 0.00 30 1002.9
20260509184553 24 175 4.8 22.5 0.00 0.00 0.00 30 1003.0
20260509183048 23 238 8.0 20.9 0.00 0.00 0.00 29 1003.0
20260509181556 23 255 6.4 17.7 0.00 0.00 0.00 29 1003.2
20260509180049 23 273 4.8 17.7 0.00 0.00 0.00 32 1003.2
20260509174542 23 291 4.8 19.3 0.00 0.00 0.00 34 1003.2
20260509173046 23 104 8.0 24.1 0.00 0.00 0.00 40 1003.4
20260509171550 23 253 6.4 20.9 0.00 0.00 0.00 44 1003.6
20260509170048 23 163 3.2 12.9 0.00 0.00 0.00 46 1003.6
20260509164543 22 215 4.8 16.1 0.00 0.00 0.00 47 1003.7
20260509163043 21 180 4.8 14.5 0.00 0.00 0.00 50 1003.7
20260509161542 20 141 4.8 17.7 0.00 0.00 0.00 55 1003.7
20260509160043 20 200 4.8 20.9 0.00 0.00 0.00 57 1003.6
20260509154553 19 270 4.8 14.5 0.00 0.00 0.00 59 1003.6
20260509153058 19 246 3.2 17.7 0.00 0.00 0.00 61 1003.5
20260509151548 19 244 6.4 20.9 0.00 0.00 0.00 62 1003.6
20260509150047 18 208 4.8 17.7 0.00 0.00 0.00 66 1003.5
20260509144542 17 188 8.0 16.1 0.00 0.00 0.00 68 1003.5
20260509143051 17 218 4.8 14.5 0.00 0.00 0.00 71 1003.5
20260509141546 16 160 6.4 20.9 0.00 0.00 0.00 71 1003.4
20260509140052 16 227 4.8 25.7 0.00 0.00 0.00 72 1003.5
20260509134542 16 187 6.4 17.7 0.00 0.00 0.00 73 1003.3
20260509133046 15 234 6.4 16.1 0.00 0.00 0.00 74 1003.4
20260509131544 15 227 8.0 16.1 0.00 0.00 0.00 76 1003.5
20260509130041 14 83 4.8 22.5 0.00 0.00 0.00 79 1003.3
20260509124543 13 219 6.4 17.7 0.00 0.00 0.00 80 1003.4
20260509123043 13 247 4.8 19.3 0.00 0.00 0.00 83 1003.2
20260509121545 12 134 4.8 16.1 0.00 0.00 0.00 85 1003.2
20260509114548 11 188 6.4 16.1 0.00 0.00 0.00 88 1003.1
20260509113043 11 219 4.8 9.7 0.00 0.00 0.00 89 1003.0
20260509111542 11 261 3.2 11.3 0.00 0.00 0.00 90 1003.0
20260509110045 11 217 4.8 11.3 0.00 0.00 0.00 90 1002.6
20260509104543 11 223 4.8 14.5 0.00 0.03 0.00 90 1002.8
20260509103042 11 218 4.8 16.1 0.00 0.03 0.00 89 1002.8
20260509101552 11 186 1.6 9.7 0.00 0.03 0.00 88 1002.9
20260509100044 11 229 3.2 8.0 0.00 0.03 0.00 88 1003.0
20260509094548 12 241 1.6 9.7 0.00 0.03 0.00 87 1003.2
20260509093043 12 229 1.6 14.5 0.00 0.03 0.00 87 1003.5
20260509091544 11 222 4.8 14.5 0.00 0.03 0.00 88 1003.4
20260509090044 11 259 6.4 14.5 0.00 0.03 0.00 87 1003.5
20260509084547 12 181 1.6 11.3 0.00 0.03 0.00 87 1003.6
20260509083048 12 238 4.8 14.5 0.00 0.03 0.00 87 1003.6
20260509081543 12 214 4.8 14.5 0.00 0.03 0.00 86 1003.4
20260509080048 12 212 4.8 16.1 0.00 0.03 0.00 85 1003.5
20260509074551 12 207 3.2 16.1 0.00 0.03 0.00 84 1003.6
20260509073114 12 222 3.2 12.9 0.00 0.03 0.00 84 1003.8
20260509071544 12 214 6.4 16.1 0.00 0.03 0.00 83 1003.9
20260509070047 12 275 3.2 12.9 0.00 0.03 0.00 83 1004.2
20260509064543 12 217 4.8 16.1 0.00 0.03 0.00 82 1004.3
20260509063040 12 0 1.6 12.9 0.00 0.03 0.00 82 1004.4
20260509061544 12 165 3.2 12.9 0.00 0.03 0.00 82 1004.5
20260509060058 13 227 4.8 14.5 0.00 0.03 0.00 82 1004.8
20260509054555 13 254 4.8 16.1 0.00 0.03 0.00 82 1004.8
20260509053042 13 206 4.8 19.3 0.00 0.03 0.00 80 1004.8
20260509051545 13 208 3.2 16.1 0.00 0.03 0.00 80 1004.7
20260509050050 13 266 3.2 12.9 0.00 0.03 0.00 78 1004.8
20260509044546 13 239 6.4 12.9 0.00 0.03 0.03 77 1004.8
20260509043050 13 269 4.8 19.3 0.00 0.03 0.03 76 1004.9
20260509041544 14 214 3.2 14.5 0.00 0.03 0.03 73 1004.9
20260509034548 14 211 4.8 12.9 0.00 0.03 0.03 72 1005.0
20260509033047 13 242 3.2 9.7 0.00 0.03 0.03 73 1005.1
20260509031548 13 221 1.6 8.0 0.00 0.03 0.03 72 1005.2
20260509030047 12 162 1.6 8.0 0.00 0.03 0.03 70 1005.1
20260509024544 12 166 1.6 9.7 0.00 0.03 0.03 69 1005.3
20260509023044 12 147 3.2 4.8 0.00 0.03 0.03 68 1005.3
20260509021545 13 150 1.6 4.8 0.00 0.03 0.03 68 1005.3
20260509020044 13 138 3.2 6.4 0.00 0.03 0.03 67 1005.3
20260509014544 13 129 1.6 6.4 0.00 0.03 0.03 66 1005.2
20260509013051 13 152 3.2 9.7 0.00 0.03 0.03 65 1005.2
20260509011556 13 164 3.2 6.4 0.00 0.03 0.03 64 1005.1
20260509010049 14 120 1.6 6.4 0.00 0.03 0.03 63 1005.1
20260509004604 14 109 4.8 12.9 0.00 0.03 0.03 62 1005.2
20260509003044 15 135 6.4 14.5 0.00 0.03 0.03 61 1005.3
20260509001549 15 85 1.6 12.9 0.00 0.03 0.03 61 1005.3
20260509000042 15 84 3.2 12.9 0.00 0.03 0.03 62 1005.4
20260508234548 15 124 3.2 12.9 0.00 0.03 0.03 62 1005.5